| time (UTC) | temp C | wind direction | speed KPH | gust KPH | rain 1hr cm | rain 24hr cm | rain mn cm | humidity % | barometer mb |
| 20260502203757 | 15 | 233 | 3.2 | 6.4 | 0.00 | 0.00 | 0.00 | 50 | 1018.0 |
| 20260502202752 | 15 | 227 | 3.2 | 4.8 | 0.00 | 0.00 | 0.00 | 50 | 1018.0 |
| 20260502201753 | 15 | 223 | 3.2 | 6.4 | 0.00 | 0.00 | 0.00 | 48 | 1018.0 |
| 20260502200748 | 16 | 217 | 1.6 | 4.8 | 0.00 | 0.00 | 0.00 | 45 | 1017.9 |
| 20260502195746 | 16 | 229 | 3.2 | 6.4 | 0.00 | 0.00 | 0.00 | 43 | 1017.9 |
| 20260502194744 | 16 | 225 | 3.2 | 6.4 | 0.00 | 0.00 | 0.00 | 42 | 1017.7 |
| 20260502193741 | 17 | 220 | 1.6 | 6.4 | 0.00 | 0.00 | 0.00 | 42 | 1017.7 |
| 20260502192740 | 17 | 205 | 1.6 | 4.8 | 0.00 | 0.00 | 0.00 | 40 | 1017.7 |
| 20260502191748 | 18 | 227 | 3.2 | 8.0 | 0.00 | 0.00 | 0.00 | 40 | 1017.6 |
| 20260502190738 | 18 | 225 | 3.2 | 6.4 | 0.00 | 0.00 | 0.00 | 39 | 1017.5 |
| 20260502185736 | 18 | 228 | 3.2 | 8.0 | 0.00 | 0.00 | 0.00 | 38 | 1017.4 |
| 20260502184734 | 19 | 222 | 4.8 | 9.7 | 0.00 | 0.00 | 0.00 | 36 | 1017.4 |
| 20260502183730 | 19 | 226 | 3.2 | 6.4 | 0.00 | 0.00 | 0.00 | 34 | 1017.3 |
| 20260502182728 | 20 | 220 | 3.2 | 8.0 | 0.00 | 0.00 | 0.00 | 33 | 1017.3 |
| 20260502181727 | 20 | 219 | 4.8 | 9.7 | 0.00 | 0.00 | 0.00 | 33 | 1017.3 |
| 20260502180725 | 20 | 216 | 3.2 | 6.4 | 0.00 | 0.00 | 0.00 | 32 | 1017.3 |
| 20260502163705 | 23 | 235 | 3.2 | 4.8 | 0.00 | 0.00 | 0.00 | 24 | 1017.7 |
| 20260502162703 | 23 | 270 | 3.2 | 6.4 | 0.00 | 0.00 | 0.00 | 24 | 1017.7 |
| 20260502161701 | 23 | 249 | 3.2 | 8.0 | 0.00 | 0.00 | 0.00 | 25 | 1017.9 |
| 20260502160659 | 23 | 270 | 3.2 | 8.0 | 0.00 | 0.00 | 0.00 | 28 | 1017.9 |
| 20260502151730 | 23 | 244 | 3.2 | 8.0 | 0.00 | 0.00 | 0.00 | 32 | 1018.3 |
| 20260502150650 | 23 | 256 | 3.2 | 6.4 | 0.00 | 0.00 | 0.00 | 34 | 1018.4 |
| 20260502130626 | 23 | 315 | 3.2 | 11.3 | 0.00 | 0.00 | 0.00 | 36 | 1020.1 |
| 20260502123618 | 23 | 291 | 3.2 | 11.3 | 0.00 | 0.00 | 0.00 | 40 | 1020.5 |
| 20260502122615 | 23 | 258 | 3.2 | 6.4 | 0.00 | 0.00 | 0.00 | 38 | 1020.7 |
| 20260502121613 | 23 | 311 | 3.2 | 9.7 | 0.00 | 0.00 | 0.00 | 37 | 1020.8 |
| 20260502120612 | 23 | 270 | 3.2 | 6.4 | 0.00 | 0.00 | 0.00 | 38 | 1021.1 |
| 20260502115609 | 23 | 270 | 3.2 | 8.0 | 0.00 | 0.00 | 0.00 | 39 | 1021.2 |
| 20260502114607 | 22 | 270 | 3.2 | 9.7 | 0.00 | 0.00 | 0.00 | 38 | 1021.4 |
| 20260502113605 | 22 | 246 | 3.2 | 9.7 | 0.00 | 0.00 | 0.00 | 36 | 1021.5 |
| 20260502112604 | 22 | 282 | 3.2 | 9.7 | 0.00 | 0.00 | 0.00 | 38 | 1021.6 |
| 20260502111600 | 22 | 306 | 3.2 | 6.4 | 0.00 | 0.00 | 0.00 | 38 | 1021.8 |
| 20260502110559 | 22 | 270 | 3.2 | 6.4 | 0.00 | 0.00 | 0.00 | 40 | 1021.9 |
| 20260502105558 | 22 | 284 | 3.2 | 8.0 | 0.00 | 0.00 | 0.00 | 40 | 1022.0 |
| 20260502104615 | 22 | 270 | 3.2 | 6.4 | 0.00 | 0.00 | 0.00 | 40 | 1022.2 |
| 20260502103554 | 22 | 290 | 3.2 | 6.4 | 0.00 | 0.00 | 0.00 | 39 | 1022.3 |
| 20260502102551 | 22 | 316 | 3.2 | 6.4 | 0.00 | 0.00 | 0.00 | 39 | 1022.4 |
| 20260502101549 | 22 | 295 | 3.2 | 6.4 | 0.00 | 0.00 | 0.00 | 38 | 1022.5 |
| 20260502100547 | 22 | 301 | 3.2 | 6.4 | 0.00 | 0.00 | 0.00 | 40 | 1022.7 |
| 20260502090537 | 22 | 270 | 3.2 | 9.7 | 0.00 | 0.00 | 0.00 | 37 | 1023.1 |
| 20260502071534 | 19 | 204 | 3.2 | 9.7 | 0.00 | 0.00 | 0.00 | 45 | 1023.9 |
| 20260502070516 | 19 | 240 | 4.8 | 8.0 | 0.00 | 0.00 | 0.00 | 48 | 1024.0 |
| 20260502065509 | 19 | 251 | 4.8 | 9.7 | 0.00 | 0.00 | 0.00 | 50 | 1024.0 |
| 20260502064508 | 18 | 251 | 4.8 | 9.7 | 0.00 | 0.00 | 0.00 | 51 | 1024.1 |
| 20260502063527 | 18 | 257 | 6.4 | 9.7 | 0.00 | 0.00 | 0.00 | 51 | 1024.1 |
| 20260502062504 | 18 | 255 | 6.4 | 11.3 | 0.00 | 0.00 | 0.00 | 53 | 1024.1 |
| 20260502061523 | 17 | 256 | 4.8 | 9.7 | 0.00 | 0.00 | 0.00 | 57 | 1024.1 |
| 20260502060500 | 17 | 250 | 3.2 | 6.4 | 0.00 | 0.00 | 0.00 | 58 | 1024.1 |
| 20260502055457 | 16 | 261 | 3.2 | 6.4 | 0.00 | 0.00 | 0.00 | 61 | 1024.1 |
| 20260502054455 | 15 | 260 | 3.2 | 6.4 | 0.00 | 0.00 | 0.00 | 64 | 1024.1 |
| 20260502053453 | 15 | 262 | 3.2 | 6.4 | 0.00 | 0.00 | 0.00 | 68 | 1024.1 |
| 20260502052452 | 13 | 270 | 1.6 | 4.8 | 0.00 | 0.00 | 0.00 | 73 | 1024.1 |
| 20260502051450 | 11 | 270 | 3.2 | 4.8 | 0.00 | 0.00 | 0.00 | 76 | 1023.9 |
| 20260502050449 | 10 | 270 | 3.2 | 6.4 | 0.00 | 0.00 | 0.00 | 80 | 1023.9 |
| 20260502045445 | 8 | 270 | 3.2 | 6.4 | 0.00 | 0.00 | 0.00 | 79 | 1023.9 |
| 20260502044442 | 8 | 270 | 3.2 | 6.4 | 0.00 | 0.00 | 0.00 | 76 | 1023.9 |
| 20260502043441 | 8 | 270 | 3.2 | 6.4 | 0.00 | 0.00 | 0.00 | 75 | 1023.9 |
| 20260502042439 | 8 | 270 | 3.2 | 6.4 | 0.00 | 0.00 | 0.00 | 75 | 1023.9 |
| 20260502041437 | 8 | 270 | 3.2 | 6.4 | 0.00 | 0.00 | 0.00 | 75 | 1023.9 |
| 20260502040455 | 8 | 253 | 4.8 | 8.0 | 0.00 | 0.00 | 0.00 | 75 | 1023.7 |
| 20260502035433 | 8 | 253 | 4.8 | 8.0 | 0.00 | 0.00 | 0.00 | 75 | 1023.7 |
| 20260502034431 | 8 | 270 | 3.2 | 6.4 | 0.00 | 0.00 | 0.00 | 75 | 1023.8 |
| 20260502033430 | 8 | 231 | 1.6 | 6.4 | 0.00 | 0.00 | 0.00 | 74 | 1023.8 |
| 20260502032427 | 8 | 219 | 1.6 | 4.8 | 0.00 | 0.00 | 0.00 | 73 | 1023.8 |
| 20260502031425 | 8 | 250 | 3.2 | 6.4 | 0.00 | 0.00 | 0.00 | 74 | 1023.8 |
| 20260502030423 | 8 | 251 | 3.2 | 6.4 | 0.00 | 0.00 | 0.00 | 73 | 1023.8 |
| 20260502025422 | 9 | 216 | 1.6 | 4.8 | 0.00 | 0.00 | 0.00 | 73 | 1023.8 |
| 20260502024419 | 9 | 240 | 3.2 | 6.4 | 0.00 | 0.00 | 0.00 | 73 | 1023.8 |
| 20260502023417 | 9 | 254 | 3.2 | 6.4 | 0.00 | 0.00 | 0.00 | 73 | 1023.8 |
| 20260502022436 | 9 | 254 | 3.2 | 6.4 | 0.00 | 0.00 | 0.00 | 72 | 1023.8 |
| 20260502021413 | 9 | 253 | 3.2 | 6.4 | 0.00 | 0.00 | 0.00 | 73 | 1023.8 |
| 20260502020411 | 9 | 261 | 3.2 | 6.4 | 0.00 | 0.00 | 0.00 | 73 | 1023.7 |
| 20260502015410 | 9 | 244 | 3.2 | 6.4 | 0.00 | 0.00 | 0.00 | 73 | 1023.7 |
| 20260502014407 | 9 | 252 | 3.2 | 6.4 | 0.00 | 0.00 | 0.00 | 73 | 1023.7 |
| 20260502013405 | 9 | 238 | 3.2 | 6.4 | 0.00 | 0.00 | 0.00 | 72 | 1023.8 |
| 20260502012403 | 9 | 257 | 3.2 | 8.0 | 0.00 | 0.00 | 0.00 | 72 | 1023.9 |
| 20260502011401 | 9 | 238 | 3.2 | 6.4 | 0.00 | 0.00 | 0.00 | 72 | 1023.9 |
| 20260502010359 | 9 | 243 | 3.2 | 8.0 | 0.00 | 0.00 | 0.00 | 72 | 1023.8 |
| 20260502005357 | 9 | 248 | 3.2 | 8.0 | 0.00 | 0.00 | 0.00 | 71 | 1023.9 |
| 20260502004355 | 9 | 257 | 3.2 | 6.4 | 0.00 | 0.00 | 0.00 | 71 | 1024.0 |
| 20260502003353 | 10 | 241 | 1.6 | 3.2 | 0.00 | 0.00 | 0.00 | 71 | 1024.0 |
| 20260502002351 | 10 | 241 | 3.2 | 6.4 | 0.00 | 0.00 | 0.00 | 70 | 1024.0 |
| 20260502001350 | 10 | 256 | 3.2 | 6.4 | 0.00 | 0.00 | 0.00 | 70 | 1024.0 |
| 20260502000347 | 10 | 242 | 1.6 | 3.2 | 0.00 | 0.00 | 0.00 | 70 | 1024.1 |
| 20260501235345 | 10 | 237 | 3.2 | 6.4 | 0.00 | 0.00 | 0.00 | 70 | 1024.1 |
| 20260501234343 | 10 | 246 | 3.2 | 6.4 | 0.00 | 0.00 | 0.00 | 69 | 1024.1 |
| 20260501233401 | 10 | 244 | 3.2 | 4.8 | 0.00 | 0.00 | 0.00 | 69 | 1024.2 |
| 20260501232339 | 10 | 252 | 3.2 | 8.0 | 0.00 | 0.00 | 0.00 | 69 | 1024.1 |
| 20260501231336 | 11 | 257 | 3.2 | 6.4 | 0.00 | 0.00 | 0.00 | 69 | 1024.1 |
| 20260501230335 | 11 | 239 | 3.2 | 6.4 | 0.00 | 0.00 | 0.00 | 68 | 1024.1 |
| 20260501225353 | 11 | 249 | 3.2 | 4.8 | 0.00 | 0.00 | 0.00 | 68 | 1024.2 |
| 20260501224331 | 11 | 238 | 3.2 | 6.4 | 0.00 | 0.00 | 0.00 | 69 | 1024.2 |
| 20260501223329 | 11 | 240 | 3.2 | 6.4 | 0.00 | 0.00 | 0.00 | 69 | 1024.2 |
| 20260501222328 | 11 | 247 | 3.2 | 6.4 | 0.00 | 0.00 | 0.00 | 68 | 1024.3 |
| 20260501221324 | 11 | 252 | 3.2 | 6.4 | 0.00 | 0.00 | 0.00 | 67 | 1024.2 |
| 20260501220344 | 11 | 234 | 1.6 | 3.2 | 0.00 | 0.00 | 0.00 | 66 | 1024.2 |
| 20260501215321 | 11 | 228 | 1.6 | 3.2 | 0.00 | 0.00 | 0.00 | 65 | 1024.1 |
| 20260501214319 | 11 | 245 | 3.2 | 4.8 | 0.00 | 0.00 | 0.00 | 65 | 1024.1 |
| 20260501213318 | 11 | 239 | 3.2 | 6.4 | 0.00 | 0.00 | 0.00 | 65 | 1024.0 |
| 20260501212335 | 12 | 235 | 3.2 | 6.4 | 0.00 | 0.00 | 0.00 | 62 | 1024.0 |
| 20260501211314 | 12 | 220 | 3.2 | 6.4 | 0.00 | 0.00 | 0.00 | 59 | 1024.0 |
| 20260501210311 | 12 | 241 | 3.2 | 6.4 | 0.00 | 0.00 | 0.00 | 58 | 1023.9 |
| 20260501205330 | 12 | 250 | 3.2 | 6.4 | 0.00 | 0.00 | 0.00 | 58 | 1024.0 |